{"data":{"norad_id":62992,"intl_designator":"2025-031M","name":"STARLINK-11570 [DTC]","alt_names":[],"object_type":"PAYLOAD","status":"ACTIVE","operator":null,"country":"US","launch_date":"2025-02-11","launch_site_code":"AFETR","launch_vehicle":null,"mission":null,"orbit_class":"UNKNOWN","rcs_meters":null,"size_class":null,"mass_kg":null,"dimensions":null,"purposes":["comms"],"wikipedia_slug":null,"has_3d_model":false,"image_url":null,"decayed_at":null,"tle_current":{"epoch":"2026-05-25T00:29:53.905920Z","epoch_age_seconds":72972,"freshness":"FRESH","line1":"1 62992U 25031M   26145.02076280  .00159667  00000+0  12220-2 0  9994","line2":"2 62992  43.0014 261.6845 0001674  37.4107 322.6877 15.70879169 74733","mean_motion":15.70879169,"eccentricity":0.0001674,"inclination_deg":43.0014,"raan_deg":261.6845,"arg_perigee_deg":37.4107,"mean_anomaly_deg":322.6877,"bstar":0.001222,"rev_number":7473,"period_min":91.668412721819,"perigee_km":355.25575289552,"apogee_km":357.51047022887,"semimajor_km":6734.5201115622,"source":"CELESTRAK","updated_at":"2026-05-25T13:38:19.832380Z"}}}